[[{"header":{"parameterUnit":"m.s-1","parameterCategory":1,"la1":30.2991,"la2":30.254,"lo1":-89.0895,"lo2":-89.0444,"dy":0.0017,"dx":0.0017,"nx":28,"ny":28,"refTime":"2024-03-24T21:00:00:Z","depth":0,"parameterNumber":2,"parameterNumberName":"U-component_of_WINDS"},"data":[0,0,0,0,0,0,0,0,0,0,0,0,0,0,0,0,0,0,0,0,0,0,0,0,0,0,0,0,0,0,0,0,0,0,0,0,0,0,0,0,0,0,0,0,0,0,0,0,0,0,0,0,0,0,0,0,0,0,2.7477,2.7477,0,2.7462,2.7462,2.7462,2.7438,2.7438,2.7437,2.7437,2.7423,2.7423,2.7423,0,0,0,0,0,0,0,0,0,0,0,0,0,2.7487,2.7487,2.7477,2.7477,2.7476,2.7462,2.7462,2.7462,2.7438,2.7438,2.7437,2.7437,2.7423,2.7423,2.7423,0,0,0,0,0,0,0,0,0,0,0,0,0,2.7479,2.7487,2.7477,2.7463,2.7462,2.7462,2.7462,2.7462,2.7438,2.7438,2.7437,2.7436,2.7423,2.7423,2.7423,2.7437,0,0,2.7423,2.7423,0,0,0,0,0,0,0,0,2.7479,2.7478,2.7465,2.7464,2.7462,2.7451,2.7461,2.7453,2.7439,2.7447,2.7437,2.7436,2.7433,2.7432,2.7431,2.7436,2.7435,2.7423,2.7423,2.7423,2.7424,0,0,0,0,0,0,0,2.748,2.7479,2.7471,2.7465,2.7463,2.7458,2.7456,2.7459,2.7444,2.7446,2.7445,2.7443,2.7432,2.7431,2.7431,2.7435,2.7423,2.7423,2.7424,2.7424,2.7454,2.7455,0,0,0,0,0,0,2.7482,2.7479,2.7472,2.7471,2.7469,2.7459,2.7457,2.7456,2.7444,2.7442,2.7444,2.7442,2.7431,2.7431,2.743,2.7447,2.7423,2.7424,2.7424,2.7453,2.7454,2.7455,0,0,0,0,0,0,2.7482,2.7482,2.7472,2.7475,2.7473,2.7459,2.7458,2.7456,2.7454,2.7442,2.7439,2.7445,2.7431,2.743,2.7436,2.7446,2.7424,2.7424,2.7452,2.7453,2.7455,2.748,0,0,0,0,0,0,2.7483,2.7482,2.7486,2.7475,2.7473,2.7477,2.7459,2.7456,2.7454,2.7452,2.7443,2.744,2.743,2.7436,2.7436,2.7446,2.7424,2.7451,2.7453,2.7454,2.7478,2.7482,2.7485,0,0,0,0,0,2.7483,2.7493,2.7486,2.7485,2.7478,2.7478,2.7477,2.7465,2.7455,2.746,2.7453,2.7441,2.7445,2.7437,2.7437,2.7447,2.7451,2.7452,2.7454,2.7476,2.7481,2.7485,0,0,0,0,0,0,2.7505,2.7491,2.7483,2.749,2.7485,2.7474,2.7479,2.7469,2.7467,2.7465,2.7451,2.7449,2.7457,2.7452,2.7443,2.7461,2.7446,2.7448,2.7463,2.7467,2.7471,2.7472,2.7424,0,0,0,0,0,2.7511,2.7512,2.75,2.7507,2.7505,2.7493,2.7492,2.7483,2.7478,2.7476,2.7469,2.7465,2.7466,2.7466,2.7466,2.7477,2.7476,2.7484,2.7488,2.7491,2.7493,2.7501,2.7505,2.7461,2.7461,2.7461,0,0,2.7523,2.7515,2.7516,2.7511,2.7506,2.7509,2.7491,2.7493,2.7496,2.7477,2.7482,2.7477,2.7472,2.7481,2.7485,2.7477,2.7505,2.7493,2.7495,2.7496,2.7503,2.7507,2.7511,2.7462,2.7462,2.7461,0,0,2.7545,2.7539,2.7545,2.7542,2.7535,2.7527,2.7529,2.752,2.7516,2.7521,2.7508,2.751,2.7511,2.7509,2.7507,2.7533,2.7522,2.7533,2.7551,2.7559,2.7563,2.7566,2.7577,2.758,2.7535,2.7535,2.7535,0,2.7561,2.7563,2.755,2.7554,2.7553,2.7537,2.7544,2.7541,2.7535,2.7535,2.7527,2.7529,2.7524,2.7534,2.7541,2.754,2.7543,2.7534,2.7563,2.7566,2.7569,2.7579,2.7583,2.7536,2.7536,2.7536,2.7536,0,2.7583,2.7585,2.7591,2.7586,2.7586,2.7592,2.7581,2.7582,2.7574,2.7568,2.7575,2.7569,2.7569,2.757,2.7562,2.758,2.7576,2.7566,2.7551,2.7575,2.7584,2.7588,2.7538,2.7538,2.7537,2.7537,0,0,2.7618,2.7608,2.761,2.7609,2.7602,2.7604,2.761,2.7609,2.7612,2.7609,2.7615,2.7617,2.7609,2.7607,2.7599,2.7606,2.7629,2.7595,2.7595,2.7603,2.7651,2.766,2.7664,2.7623,2.7623,2.7624,2.7652,0,2.764,2.7649,2.7639,2.765,2.7653,2.7639,2.7645,2.7642,2.7637,2.764,2.7634,2.7637,2.7624,2.7624,2.763,2.7625,2.7639,2.7623,2.7629,2.763,2.7632,2.7669,2.7677,2.7704,2.7656,2.7656,2.7657,0,2.7666,2.7665,2.7678,2.7672,2.7673,2.7678,2.7679,2.7681,2.7678,2.7674,2.7675,2.7665,2.7673,2.7658,2.7669,2.7659,2.7661,2.7659,2.766,2.7661,2.7645,2.7672,2.7712,2.7717,2.7662,2.7662,2.7661,0,2.7692,2.7694,2.7702,2.7702,2.7695,2.77,2.7697,2.7694,2.7695,2.7696,2.7697,2.7699,2.77,2.7702,2.7694,2.7684,2.7707,2.7692,2.7705,2.7706,2.7711,2.7711,2.7754,2.7711,2.7711,2.7711,2.7711,0,2.7718,2.7727,2.7714,2.7719,2.7729,2.7718,2.7729,2.7725,2.7723,2.7729,2.7716,2.7722,2.7711,2.7716,2.771,2.7721,2.7721,2.772,2.7718,2.7721,2.7722,2.7723,2.7721,2.7712,2.7712,2.7712,2.7711,0,2.7749,2.7741,2.7749,2.7743,2.7742,2.775,2.7745,2.775,2.7745,2.7753,2.7754,2.7746,2.7752,2.7744,2.7748,2.7745,2.7761,2.7756,2.7762,2.7761,2.7776,2.7775,2.7821,2.7828,2.778,2.7781,2.7781,0,2.7766,2.7772,2.7768,2.777,2.7769,2.7773,2.7775,2.7765,2.7768,2.7767,2.7774,2.7778,2.7781,2.7791,2.7787,2.7791,2.7787,2.7803,2.7787,2.7791,2.7789,2.7789,2.7791,2.7806,2.7807,2.7807,2.7808,0,2.7798,2.7795,2.7797,2.78,2.7802,2.7804,2.7804,2.7807,2.7798,2.7802,2.7807,2.781,2.7815,2.7821,2.7824,2.7823,2.7815,2.7813,2.7816,2.782,2.7824,2.7824,2.7772,2.7812,2.7811,2.7811,2.7811,2.781,2.7824,2.783,2.7828,2.7832,2.7832,2.7833,2.7839,2.7835,2.784,2.7843,2.7838,2.7846,2.7846,2.785,2.785,2.7857,2.785,2.7855,2.7857,2.7858,2.7861,2.7822,2.7858,2.7857,2.7857,2.7857,2.7857,0,2.7857,2.7856,2.786,2.7861,2.7866,2.7857,2.7858,2.7862,2.7869,2.787,2.7874,2.7882,2.7888,2.7885,2.789,2.7897,2.7893,2.7899,2.7899,2.7899,2.7866,2.7863,2.7902,2.7902,2.7902,2.7902,2.7902,2.7902,2.7875,2.7885,2.7882,2.7893,2.7892,2.7899,2.7901,2.7903,2.7904,2.7913,2.7918,2.7916,2.7916,2.7922,2.7928,2.7927,2.7931,2.7938,2.7936,2.7905,2.7901,2.7897,2.7894,2.7938,2.7939,2.7968,2.7969,2.7969]},{"header":{"parameterUnit":"m.s-1","parameterCategory":1,"la1":30.2991,"la2":30.254,"lo1":-89.0895,"lo2":-89.0444,"dy":0.0017,"dx":0.0017,"nx":28,"ny":28,"refTime":"2024-03-24T21:00:00:Z","depth":0,"parameterNumber":3,"parameterNumberName":"V-component_of_WINDS"},"data":[0,0,0,0,0,0,0,0,0,0,0,0,0,0,0,0,0,0,0,0,0,0,0,0,0,0,0,0,0,0,0,0,0,0,0,0,0,0,0,0,0,0,0,0,0,0,0,0,0,0,0,0,0,0,0,0,0,0,0.9931,0.9931,0,0.9973,0.9974,0.9974,0.9976,0.9975,0.9975,0.9974,1.0014,1.0016,1.0017,0,0,0,0,0,0,0,0,0,0,0,0,0,0.9849,0.985,0.9931,0.9932,0.9932,0.9973,0.9974,0.9974,0.9976,0.9975,0.9975,0.9974,1.0014,1.0016,1.0017,0,0,0,0,0,0,0,0,0,0,0,0,0,0.9887,0.9851,0.9931,0.9938,0.9939,0.9973,0.9974,0.9974,0.9976,0.9975,0.9975,0.9974,1.0013,1.0015,1.0018,1.0046,0,0,1.0025,1.0026,0,0,0,0,0,0,0,0,0.9885,0.989,0.9936,0.9938,0.9939,0.9969,0.9959,0.9998,0.9976,0.9962,0.9974,0.9974,0.9999,1.0003,1.0012,1.0048,1.005,1.0025,1.0026,1.0027,1.0028,0,0,0,0,0,0,0,0.9882,0.9888,0.9948,0.9937,0.9939,0.9938,0.9943,0.9967,0.9984,0.9963,0.9963,0.9968,1.0,1.001,1.0013,1.0051,1.0025,1.0027,1.0028,1.0029,1.0111,1.0112,0,0,0,0,0,0,0.9879,0.9886,0.9946,0.9949,0.991,0.994,0.9945,0.996,0.9984,0.9987,0.9969,0.9968,1.0007,1.0011,1.0015,1.005,1.0027,1.0029,1.0031,1.0111,1.0112,1.0113,0,0,0,0,0,0,0.9877,0.9884,0.9945,0.9917,0.9925,0.9942,0.9958,0.9961,0.9971,0.9989,0.9991,0.9976,1.0006,1.0011,1.0039,1.0051,1.003,1.0032,1.011,1.0111,1.0112,1.012,0,0,0,0,0,0,0.9874,0.9883,0.9895,0.9918,0.9927,0.9969,0.9959,0.9962,0.9975,0.9975,0.9996,0.9999,1.0006,1.0035,1.0041,1.0054,1.0034,1.0109,1.011,1.0112,1.0119,1.0121,1.0124,0,0,0,0,0,0.9872,0.9895,0.9896,0.9903,0.9942,0.997,0.9975,0.9983,0.9976,0.9988,0.9999,0.9998,1.0049,1.0038,1.0044,1.0058,1.0108,1.011,1.0112,1.0118,1.0121,1.0124,0,0,0,0,0,0,0.9873,0.9898,0.9899,0.9931,0.9948,0.997,0.9985,0.9986,1.0005,1.0004,1.0012,1.0017,1.0044,1.0054,1.0041,1.0087,1.0077,1.0081,1.008,1.0083,1.0085,1.0083,1.0036,0,0,0,0,0,0.9877,0.9898,0.9919,0.9945,0.9954,0.9968,0.998,0.9985,1.0003,1.001,1.0023,1.0039,1.0059,1.0071,1.009,1.012,1.0124,1.0132,1.0135,1.0137,1.014,1.0156,1.016,1.0119,1.0119,1.0119,0,0,0.9885,0.9902,0.9915,0.9946,0.996,0.998,0.9974,0.9996,1.0011,1.0013,1.004,1.005,1.0068,1.0097,1.011,1.0106,1.0152,1.0139,1.0141,1.0142,1.0158,1.0162,1.0165,1.012,1.012,1.0119,0,0,0.9911,0.9926,0.995,0.9964,0.9985,0.9995,1.0,1.0022,1.0029,1.0056,1.0057,1.0075,1.0108,1.0121,1.0132,1.0163,1.0163,1.0169,1.0182,1.0197,1.0201,1.0204,1.0214,1.0218,1.0171,1.0171,1.0171,0,0.9919,0.9952,0.9961,0.9984,0.9997,1.0,1.0023,1.0036,1.0062,1.0071,1.0066,1.0108,1.012,1.0152,1.016,1.0168,1.0174,1.0167,1.02,1.0203,1.0205,1.0216,1.022,1.0172,1.0172,1.0172,1.0172,0,0.996,0.9982,0.9998,1.0025,1.004,1.0062,1.0074,1.0088,1.0092,1.0101,1.0128,1.0143,1.0165,1.0173,1.0176,1.0205,1.0202,1.0198,1.0189,1.021,1.022,1.0224,1.0173,1.0173,1.0172,1.0172,0,0,0.9988,1.002,1.0026,1.0037,1.0061,1.0078,1.01,1.0123,1.0134,1.0152,1.017,1.0198,1.0195,1.0208,1.0212,1.0226,1.0249,1.022,1.0221,1.0225,1.0281,1.0284,1.0289,1.0249,1.025,1.025,1.028,0,1.0017,1.0059,1.0068,1.0103,1.0123,1.0126,1.0145,1.0161,1.017,1.0188,1.0198,1.0218,1.0212,1.0219,1.0233,1.0243,1.026,1.0241,1.0265,1.0266,1.0261,1.0294,1.0297,1.0324,1.0283,1.0284,1.0285,0,1.0057,1.0076,1.0114,1.0135,1.0144,1.0161,1.0182,1.02,1.0217,1.0223,1.0237,1.024,1.0262,1.0251,1.0281,1.0268,1.0278,1.0285,1.0286,1.0289,1.0277,1.0297,1.0333,1.0337,1.0291,1.029,1.029,0,1.0074,1.0109,1.0137,1.0147,1.0172,1.0184,1.0194,1.0211,1.0224,1.0242,1.0251,1.027,1.0281,1.0296,1.0304,1.0295,1.0333,1.0323,1.0338,1.0338,1.0346,1.0346,1.0384,1.0352,1.0352,1.0352,1.0352,0,1.0105,1.0128,1.0145,1.0161,1.0187,1.0196,1.022,1.0231,1.0246,1.0264,1.0267,1.0283,1.0293,1.031,1.0316,1.034,1.0345,1.0349,1.0351,1.0349,1.0349,1.0356,1.0355,1.0353,1.0353,1.0353,1.0353,0,1.0129,1.0141,1.0171,1.0192,1.0198,1.0216,1.0233,1.0249,1.0258,1.028,1.0286,1.03,1.0321,1.033,1.0355,1.0359,1.0387,1.0387,1.0381,1.0382,1.0396,1.0395,1.0441,1.0447,1.0411,1.0411,1.0412,0,1.0148,1.0166,1.0189,1.0202,1.0214,1.0234,1.0248,1.0257,1.0271,1.0292,1.0305,1.0326,1.0344,1.0376,1.0388,1.0407,1.0407,1.0422,1.041,1.0408,1.0408,1.0407,1.0408,1.0424,1.0425,1.0425,1.0425,0,1.0181,1.0186,1.0206,1.0228,1.0244,1.0262,1.0279,1.0289,1.0301,1.0316,1.0338,1.0351,1.0377,1.0398,1.0418,1.0428,1.0428,1.0429,1.0433,1.0432,1.0428,1.0431,1.0387,1.0428,1.0428,1.0427,1.0427,1.0427,1.0203,1.0219,1.0238,1.026,1.0274,1.029,1.0306,1.0317,1.0336,1.0359,1.0363,1.0386,1.0403,1.043,1.044,1.0458,1.0454,1.046,1.0462,1.0464,1.0465,1.0425,1.0461,1.0461,1.0461,1.0461,1.0461,0,1.0236,1.0249,1.0269,1.0294,1.0311,1.0311,1.0329,1.0343,1.0364,1.038,1.0397,1.0422,1.0442,1.0455,1.0475,1.0487,1.0487,1.0492,1.0491,1.0493,1.0467,1.0461,1.0491,1.0491,1.0491,1.0491,1.0491,1.0491,1.0256,1.0283,1.029,1.0324,1.0336,1.036,1.037,1.0385,1.0398,1.0426,1.0443,1.0452,1.0466,1.0487,1.0505,1.0508,1.0516,1.052,1.0523,1.0498,1.0495,1.0492,1.0487,1.0521,1.0522,1.0548,1.0548,1.0549]}]]